Flag for U.S.A. Weather past 2 weeks in Billings, Montana, U.S.A.

Now
79 °F

Sunny.


Feels Like: 78 °F
Forecast: 40 / 76 °F
Wind: 5 mph from North

Location: Billings Logan International Airport

Current Time: Oct 20, 2014 at 4:58:36 PM

Latest Report: Oct 20, 2014 at 3:53 PM


Visibility: 10 mi

Pressure: 29.79 "Hg

Humidity: 14%

Dew point: 26 °F

Location of BillingsLocation

Historic Weather in Billings — Graph

°F

Billings temperature yesterday

Maximum temperature yesterday: 72 °F (at 3:53 PM)
Minimum temperature yesterday: 42 °F (at 8:53 AM)
Average temperature yesterday: 56 °F

Past Weeks' High & Low Weather Summary

 TemperatureHumidityPressure
High79 °F (Oct 8, 3:53 PM)90% (Oct 11, 11:53 PM)30.19 "Hg (Oct 11, 11:53 PM)
Low35 °F (Oct 17, 7:53 AM)13% (Oct 20, 2:53 PM)29.51 "Hg (Oct 15, 4:53 PM)
Average56 °F49%29.94 "Hg
* Reported Oct 5 2:53 PM — Oct 20 2:53 PM, Billings, Weather by CustomWeather, © 2014

Note: Actual official high and low records may vary slightly from our data, if they occured in-between our weather recording intervals... More about our weather records

Advertising

Billings weather history for previous 24 hours

 ConditionsComfort  
Time TempWeatherWind HumidityBarometerVisibility
2:53 PM
Oct 20
79 °FSunny.10 mph13%29.80 "Hg10 mi
1:53 PM75 °FSunny.5 mph20%29.82 "Hg10 mi
12:53 PM72 °FSunny.12 mph23%29.85 "Hg10 mi
11:53 AM67 °FSunny.13 mph26%29.88 "Hg10 mi
10:53 AM58 °FSunny.14 mph38%29.91 "Hg10 mi
9:53 AM51 °FSunny.16 mph46%29.91 "Hg10 mi
8:53 AM43 °FSunny.14 mph62%29.93 "Hg10 mi
7:53 AM41 °FClear.13 mph67%29.92 "Hg10 mi
6:53 AM45 °FClear.16 mph58%29.90 "Hg10 mi
5:53 AM49 °FClear.13 mph50%29.89 "Hg10 mi
4:53 AM45 °FClear.10 mph60%29.90 "Hg10 mi
3:53 AM49 °FClear.16 mph52%29.89 "Hg10 mi
2:53 AM49 °FClear.14 mph52%29.90 "Hg10 mi
1:53 AM49 °FClear.13 mph52%29.91 "Hg10 mi
12:53 AM51 °FClear.10 mph50%29.93 "Hg10 mi
11:53 PM
Oct 19
54 °FClear.9 mph49%29.93 "Hg10 mi
10:53 PM55 °FClear.8 mph47%29.94 "Hg10 mi
8:53 PM63 °FClear.3 mph35%29.96 "Hg10 mi
7:53 PM65 °FClear.5 mph32%29.96 "Hg10 mi
6:53 PM67 °FPassing clouds.No wind29%29.96 "Hg10 mi
5:53 PM70 °FPassing clouds.No wind26%29.94 "Hg10 mi
4:53 PM72 °FPassing clouds.No wind21%29.93 "Hg10 mi
Weather by CustomWeather, © 2014

See weather overviewHow to use our weather pages